Retour au catalogue

NIMBUS 2 DEB

ActifLEO
NORAD 37891·DEBRIS·🇺🇸 United States

Lancé May 15, 1966 depuis Vandenberg Space Force Base

Loading…

Prochains Passages (prochaines 24 heures)

TLE

FraisSource: Space-Track

Époque: Sep 12, 2026, 21:26 UTC

1 37891U 66040AW  26255.89358056  .00001269  00000-0  20364-2 0  9993
2 37891 100.5392 233.2593 0067081  40.3972 320.2114 13.50217329745747

Suivez NIMBUS 2 DEB en temps réel avec AllMySat

Download on the App Store